Location: ??
(31.9467°N, 34.8903°E)
Time: 18:27:58
(UTC+00:00)

OAO 2 Rocket - Pass Details

Date: 29 October 2020
Orbit: 676 x 746 km, 35.0° (Epoch: 30 November)

Event Time Altitude Azimuth Distance (km) Brightness Sun altitude
Rises 17:05:08 0° 282° (WNW) 3,051 7.8 -28.5°
Reaches altitude 10° 17:07:34 10° 285° (WNW) 2,125 6.7 -29.0°
Enters shadow 17:11:08 45° 304° (NW) 924 4.2 -29.8°
